Flag for Belgium Weather past 2 weeks in Brussels, Belgium

Now
63 °F

Mild.


Feels Like: 63 °F
Forecast: 55 / 69 °F
Wind: 3 mph from West

Location: Uccle

Current Time: Sep 30, 2014 at 12:00:39 PM

Latest Report: Sep 30, 2014 at 11:00 AM


Visibility: N/A

Pressure: 30.28 "Hg

Humidity: 81%

Dew point: 56 °F

Location of BrusselsLocation

Historic Weather in Brussels — Graph

°F

Brussels temperature yesterday

Maximum temperature yesterday: 65 °F (at 6:00 PM)
Minimum temperature yesterday: 57 °F (at 4:00 AM)
Average temperature yesterday: 61 °F

Past Weeks' High & Low Weather Summary

 TemperatureHumidityPressure
High78 °F (Sep 19, 4:00 PM)95% (Sep 19, 8:00 AM)30.37 "Hg (Sep 19, 8:00 AM)
Low47 °F (Sep 23, 7:00 AM)48% (Sep 17, 5:00 PM)29.79 "Hg (Sep 18, 5:00 PM)
Average61 °F80%30.07 "Hg
* Reported Sep 15 10:00 AM — Sep 30 10:00 AM, Brussels, Weather by CustomWeather, © 2014

Note: Actual official high and low records may vary slightly from our data, if they occured in-between our weather recording intervals... More about our weather records

Advertising

Brussels weather history for previous 24 hours

 ConditionsComfort  
Time TempWeatherWind HumidityBarometerVisibility
10:00 AM
Sep 30
61 °FCool.2 mph90%30.27 "HgN/A
9:00 AM59 °FFog.2 mph92%30.27 "Hg1 mi
8:00 AM60 °FCool.2 mph92%30.25 "HgN/A
7:00 AM60 °FPassing clouds.5 mph92%30.24 "Hg1 mi
6:00 AM61 °FCool.3 mph92%30.23 "HgN/A
5:00 AM61 °FCool.2 mph92%30.22 "HgN/A
4:00 AM61 °FCool.2 mph92%30.22 "HgN/A
3:00 AM61 °FCool.3 mph91%30.21 "HgN/A
2:00 AM62 °FCool.3 mph90%30.21 "HgN/A
1:00 AM62 °FCool.5 mph90%30.21 "HgN/A
12:00 AM62 °FCool.3 mph89%30.22 "HgN/A
11:00 PM
Sep 29
62 °FCool.3 mph89%30.22 "HgN/A
10:00 PM62 °FCool.3 mph90%30.21 "HgN/A
9:00 PM62 °FCool.5 mph89%30.20 "HgN/A
8:00 PM64 °FMild.2 mph88%30.19 "HgN/A
7:00 PM65 °FMild.1 mph86%30.19 "HgN/A
6:00 PM65 °FMild.1 mph85%30.19 "HgN/A
5:00 PM65 °FMild.2 mph85%30.20 "HgN/A
4:00 PM64 °FMild.1 mph89%30.20 "HgN/A
3:00 PM64 °FLight rain. Overcast.3 mph90%30.20 "Hg1 mi
2:00 PM63 °FMild.3 mph89%30.20 "HgN/A
1:00 PM62 °FLight rain. Overcast.5 mph84%30.21 "Hg2 mi
12:00 PM64 °FOvercast.3 mph78%30.20 "Hg6 mi
Weather by CustomWeather, © 2014

See weather overviewHow to use our weather pages